Location: Zagreb
(45.8000°N, 16.0000°E)
Time: 20:12:31
(UTC+02:00)

A-11 Canister half - Pass Details

Date: 17 August 2022
Orbit: 1524 x 1684 km, 47.3° (Epoch: 05 October)

Event Time Altitude Azimuth Distance (km) Brightness Sun altitude
Rises 12:44:30 0° 291° (WNW) 4,931 11.5 57.4°
Reaches altitude 10° 12:48:43 10° 277° (W) 3,924 11.2 57.5°
Maximum altitude 12:55:28 21° 233° (SW) 3,105 11.2 57.5°
Drops below altitude 10° 13:02:07 10° 190° (S) 3,837 11.8 57.5°
Sets 13:06:13 0° 175° (S) 4,790 12.1 57.5°
